Racecast

IHSAA SEMI-STATE (BROWN COUNTY)

Eagle Park · 5000m · Girls · Compiled · IN

179 runners from 1 division

These divisions were run separately. This is how their times compare, not how they finished — the places and scores below were never contested.

View full meet →

Team scores

Place Team Points 12345 67
1 Columbus North (IN) 38 1 2 7 11 17 22 27
2 Bloomington South (IN) 98 4 16 21 23 34 41 50
3 Terre Haute North Vigo (IN) 115 6 25 26 28 30 35 46
4 Floyd Central (IN) 138 8 13 19 43 55 66 85
5 Bloomington North (IN) 178 3 32 36 51 56 69 84
6 Jasper (IN) 203 15 18 47 52 71 106 128
7 Evansville Reitz Memorial (IN) 207 5 38 42 60 62 100 120
8 Terre Haute South Vigo (IN) 211 20 39 40 48 64 72 93
9 Evansville North (IN) 216 10 12 31 74 89 97 104
10 Silver Creek (IN) 247 14 33 37 73 90 110 122
11 North Harrison (IN) 330 9 75 77 83 86 114 135
12 Northeast Dubois (IN) 350 29 68 79 82 92 94 107
13 Brown County (IN) 384 45 54 70 98 117 119 121
14 Gibson Southern (IN) 389 49 53 67 105 115 127 134
15 Salem (IN) 393 24 44 65 124 136 137 138
16 Forest Park (IN) 399 61 63 76 81 118 125 133
17 Columbus East (IN) 406 57 59 88 99 103 116 132
18 Vincennes Lincoln (IN) 436 78 80 87 95 96 101 139
19 Evansville Mater Dei (IN) 502 58 108 111 112 113 126 131
20 Seymour (IN) 554 91 102 109 123 129 130

Not scored, fewer than five finishers: Southridge (3), Shakamak (3), Henryville (2), New Albany (2), Perry Central (2), Tell City (2), Switzerland County (1), Bloomfield (1), Edgewood (1), Orleans (1), Eastern Greene (Bloomfield) (1), Boonville (1), Indian Creek (1), Barr Reeve (1), Northview (1), New Washington (1), Madison Consolidated (1), Southwestern (Shelbyville) (1), Charlestown (1), Castle (1), Crawford County (1), Signature (1), Pike Central (1), Bedford North Lawrence (1), Evansville Harrison (1), South Knox (1), Southwestern (Hanover) (1), North Posey (1), Mt. Vernon (Posey) (1), Washington (1), Brownstown Central (1), Rockville (1)

Results

Place Athlete Grade School Time Rating Points Actual race
1 Mackenzie Caldwell 12 Columbus North (IN) 1 17:45.3 139.6 1 1
2 Sierra Lax 10 Columbus North (IN) 2 18:13.8 136.0 2 2
3 Kate Raphael 12 Bloomington North (IN) 1 18:18.2 135.4 3 3
4 Alex Warzyniak 12 Bloomington South (IN) 1 18:20.6 135.1 4 4
5 Shannon Effron 12 Evansville Reitz Memorial (IN) 1 18:36.2 133.2 5 5
6 Lindsay Welker 10 Terre Haute North Vigo (IN) 1 18:42.2 132.5 6 6
7 Rachel Brougher 9 Columbus North (IN) 3 18:46.4 132.0 7 7
8 Lydia Kotowski 10 Floyd Central (IN) 1 18:51.3 131.5 8 8
9 Ashton Bosler 11 North Harrison (IN) 1 18:57.2 130.8 9 9
10 Allison Rollins 11 Evansville North (IN) 1 19:03.8 130.0 10 10
11 Allison Coffey 10 Columbus North (IN) 4 19:06.2 129.8 11 11
12 Whitley Schirmer 9 Switzerland County (IN) 1 19:19.4 128.3 12
13 Michaela Ward 10 Evansville North (IN) 2 19:19.6 128.3 12 13
14 Kassidy Manning 10 Floyd Central (IN) 2 19:22.0 128.0 13 14
15 Mackenzie Crouch 11 Silver Creek (CA) 1 19:22.8 127.9 14 15
16 Alli Workman 10 Bloomfield (NJ) 1 19:23.3 127.9 16
17 Tara Cassidy 9 Jasper (IN) 1 19:28.8 127.2 15 17
18 Alexis Lewandowski 11 Bloomington South (IN) 2 19:31.2 127.0 16 18
19 Nina Bouthier 10 Columbus North (IN) 5 19:32.0 126.9 17 19
20 Hannah Welsh 10 Jasper (IN) 2 19:33.7 126.7 18 20
21 Hannah Sears 10 Edgewood (WI) 1 19:34.9 126.6 21
22 Madison Barney 10 Floyd Central (IN) 3 19:36.0 126.5 19 22
23 Anastacia Greene 9 Henryville (IN) 1 19:37.8 126.3 23
24 Angela Kendall 12 Orleans (IN) 1 19:41.9 125.8 24
25 Katie Schmidt 12 Terre Haute South Vigo (IN) 1 19:42.1 125.8 20 25
26 Veronica Fickel 11 Bloomington South (IN) 3 19:44.7 125.6 21 26
27 Avrie Allen 10 Columbus North (IN) 6 19:45.7 125.4 22 27
28 Lainey Derheimer 12 Bloomington South (IN) 4 19:46.1 125.4 23 28
29 Sandra Warren 10 Salem (MI) 1 19:47.1 125.3 24 29
30 Sadie Spears 12 Henryville (IN) 2 19:51.3 124.8 30
31 Jessi Conley 12 Terre Haute North Vigo (IN) 2 19:53.4 124.6 25 31
32 Makenzie Smokestad 12 Terre Haute North Vigo (IN) 3 19:53.4 124.6 26 32
33 Olivia Malone 11 Columbus North (IN) 7 19:56.4 124.3 27 33
34 Mallory Sanders 12 Terre Haute North Vigo (IN) 4 19:57.9 124.2 28 34
35 Latesha Merkel 12 Northeast Dubois (IN) 1 20:01.5 123.8 29 35
36 Hannah Bunch 9 Terre Haute North Vigo (IN) 5 20:03.6 123.6 30 36
37 Mary Elizabeth Grimm 10 Evansville North (IN) 3 20:06.0 123.3 31 37
38 Joy Brown 10 Bloomington North (IN) 2 20:06.1 123.3 32 38
39 Brittany Sharp 12 Silver Creek (CA) 2 20:07.3 123.2 33 39
40 Rose Kaforski 11 New Albany (OH) 1 20:08.0 123.1 40
41 Hannah Resler 12 Eastern Greene (Bloomfield) (IN) 1 20:08.1 123.1 41
42 Macy Evans 10 Bloomington South (IN) 5 20:10.7 122.8 34 42
43 Keeliegh Stigall 10 Terre Haute North Vigo (IN) 6 20:12.8 122.6 35 43
44 Kendyll Schulz 9 Bloomington North (IN) 3 20:16.2 122.3 36 44
45 Margaret Shields 11 Silver Creek (CA) 3 20:18.4 122.1 37 45
46 Sarah Wargel 12 Evansville Reitz Memorial (IN) 2 20:19.3 122.0 38 46
47 Kate Henrickson 12 Boonville (MO) 1 20:20.0 121.9 47
48 Emma Russell 11 Indian Creek (IN) 1 20:20.5 121.9 48
49 Amanda Moore 9 Terre Haute South Vigo (IN) 2 20:22.2 121.7 39 49
50 Katie Barton 10 Terre Haute South Vigo (IN) 3 20:24.5 121.5 40 50
51 Gabbie Hetrick 9 Bloomington South (IN) 6 20:24.8 121.4 41 51
52 Aubrey Main 11 Southridge (OR) 1 20:25.7 121.3 52
53 Lacie Folz 11 Evansville Reitz Memorial (IN) 3 20:26.3 121.3 42 53
54 Morgan Paul 9 Floyd Central (IN) 4 20:27.1 121.2 43 54
55 Emily Schultheis 9 Barr Reeve (IN) 1 20:29.0 121.0 55
56 Sydney Calhoun 11 Salem (MI) 2 20:29.1 121.0 44 56
57 Ashley Kidwell 11 Northview (GA) 1 20:31.7 120.8 57
58 Rose Guingrich 11 Brown County (IN) 1 20:32.4 120.7 45 58
59 Erin Buckallew 12 Terre Haute North Vigo (IN) 7 20:32.7 120.7 46 59
60 Rachael Welsh 10 Jasper (IN) 3 20:33.1 120.6 47 60
61 Samantha Holmes 12 Terre Haute South Vigo (IN) 4 20:35.1 120.4 48 61
62 Maisie Lay 10 Gibson Southern (IN) 1 20:36.4 120.3 49 62
63 Zarya deSouza 9 Bloomington South (IN) 7 20:36.8 120.3 50 63
64 Maya Wilson 10 Bloomington North (IN) 4 20:40.3 119.9 51 64
65 Noelle Weyer 9 Jasper (IN) 4 20:40.3 119.9 52 65
66 Olivia Graebe 9 New Washington (IN) 1 20:44.4 119.5 66
67 Ashlee Allen 10 Madison Consolidated (IN) 1 20:46.1 119.4 67
68 Kylie Hasenour 10 Gibson Southern (IN) 2 20:46.5 119.3 53 68
69 Elodie Belleflamme 12 Brown County (IN) 2 20:46.9 119.3 54 69
70 Jillian Theis 9 Perry Central (IN) 1 20:48.3 119.2 70
71 Haley Temple 12 Southwestern (Shelbyville) (IN) 1 20:48.6 119.1 71
72 Elizabeth Bredeweg 9 Shakamak (IN) 1 20:49.6 119.0 72
73 Whitney Andrews 11 Charlestown (IN) 1 20:50.7 118.9 73
74 Jamie Bierman 12 Floyd Central (IN) 5 20:52.5 118.8 55 74
75 Ella Flynn 10 Bloomington North (IN) 5 20:52.9 118.7 56 75
76 Morgan Ketron 10 Columbus East (IN) 1 20:53.5 118.7 57 76
77 Emily Blankenberger 12 Evansville Mater Dei (IN) 1 20:55.2 118.5 58 77
78 Kira Singer 10 Columbus East (IN) 2 20:55.6 118.5 59 78
79 Taylor Warren 12 Evansville Reitz Memorial (IN) 4 20:56.2 118.4 60 79
80 Nicole Rahman 12 Forest Park (VA) 1 20:56.8 118.3 61 80
81 Kait Schopmeyer 9 Evansville Reitz Memorial (IN) 5 20:57.3 118.3 62 81
82 Amy Troesch 9 Forest Park (VA) 2 20:58.6 118.2 63 82
83 Kirsten Peterson 10 Terre Haute South Vigo (IN) 5 20:58.8 118.2 64 83
84 Madison Smith 11 Salem (MI) 3 21:01.4 117.9 65 84
85 Zoe Doebbler 12 Floyd Central (IN) 6 21:02.9 117.8 66 85
86 Kitty Taylor 12 Castle (IN) 1 21:03.1 117.8 86
87 Taylor Kiesel 11 Gibson Southern (IN) 3 21:03.4 117.7 67 87
88 Rachel Breitwieser 12 Northeast Dubois (IN) 2 21:04.3 117.6 68 88
89 Anna McCoy 12 Bloomington North (IN) 6 21:05.2 117.6 69 89
90 Alicia Fredrick 11 Brown County (IN) 3 21:07.1 117.4 70 90
91 Sydney Berger 12 Jasper (IN) 5 21:08.8 117.2 71 91
92 Nicole Howe 12 Terre Haute South Vigo (IN) 6 21:09.3 117.2 72 92
93 Aleksey Green 12 Shakamak (IN) 2 21:09.7 117.1 93
94 Mariah Sweet 10 Shakamak (IN) 3 21:10.0 117.1 94
95 Jessica Backherms 11 Silver Creek (CA) 4 21:13.5 116.8 73 95
96 Hailey Carman 10 Tell City (IN) 1 21:14.9 116.7 96
97 Schyler Opel 12 Evansville North (IN) 4 21:15.2 116.6 74 97
98 Blos Karin 11 North Harrison (IN) 2 21:15.8 116.6 75 98
99 Casey Lamb 10 Southridge (OR) 2 21:16.4 116.5 99
100 Yasmeen Yennes 11 Crawford County (IN) 1 21:16.5 116.5 100
101 Sarah Pund 9 Forest Park (VA) 3 21:17.3 116.4 76 101
102 Shelby Lindsey 12 North Harrison (IN) 3 21:19.1 116.3 77 102
103 Erin Parker 11 Vincennes Lincoln (IN) 1 21:19.6 116.2 78 103
104 Jessica Kahle 9 Northeast Dubois (IN) 3 21:19.7 116.2 79 104
105 Paige Jones 10 Vincennes Lincoln (IN) 2 21:21.6 116.1 80 105
106 Emma Watson 12 Signature (IN) 1 21:21.8 116.0 106
107 Emma Fraze 10 Forest Park (VA) 4 21:22.1 116.0 81 107
108 Abby Hillyard 9 Pike Central (IN) 1 21:23.0 115.9 108
109 Ashton Knies 11 Northeast Dubois (IN) 4 21:24.8 115.8 82 109
110 Carrie Flinn 10 Bedford North Lawrence (IN) 1 21:25.5 115.7 110
111 Haley Cobbs 11 Evansville Harrison (IN) 1 21:25.7 115.7 111
112 Delaney McDowell 12 South Knox (IN) 1 21:25.7 115.7 112
113 Hayley Elliott 11 North Harrison (IN) 4 21:25.8 115.7 83 113
114 Rivkah Moore 11 Bloomington North (IN) 7 21:26.2 115.6 84 114
115 Gabrielle Rodriquez 11 Floyd Central (IN) 7 21:30.8 115.2 85 115
116 Stevi Burns 9 North Harrison (IN) 5 21:32.2 115.1 86 116
117 Savannah Rueda 11 Southwestern (Hanover) (IN) 1 21:33.0 115.0 117
118 Megan Thomas 11 Perry Central (IN) 2 21:33.4 115.0 118
119 Bailee Oexmann 10 Vincennes Lincoln (IN) 3 21:33.6 115.0 87 119
120 Rachel Foley 11 Columbus East (IN) 3 21:33.6 115.0 88 120
121 Jalynn Pruitt 9 Tell City (IN) 2 21:34.1 114.9 121
122 Kelsey Francis 10 Evansville North (IN) 5 21:34.2 114.9 89 122
123 Miranda Coats 11 Silver Creek (CA) 5 21:35.0 114.8 90 123
124 Olivia Goebel 12 North Posey (IN) 1 21:36.0 114.8 124
125 Toni Waddell 11 Mt. Vernon (Posey) (IN) 1 21:37.8 114.6 125
126 Lauren Meyer 9 Southridge (OR) 3 21:39.7 114.4 126
127 Maya Hauersperger 10 Seymour (IN) 1 21:40.3 114.4 91 127
128 Aubrey Knies 10 Northeast Dubois (IN) 5 21:42.3 114.2 92 128
129 Aydee Dalina 10 Terre Haute South Vigo (IN) 7 21:45.1 114.0 93 129
130 Maddy Laux 9 Northeast Dubois (IN) 6 21:46.6 113.8 94 130
131 Marissa McCarter 10 Vincennes Lincoln (IN) 4 21:48.0 113.7 95 131
132 Isis Jones 9 Vincennes Lincoln (IN) 5 21:49.1 113.6 96 132
133 Irma Fregozo 12 Evansville North (IN) 6 21:49.8 113.6 97 133
134 Corrissa Proctor 10 Brown County (IN) 4 21:50.3 113.5 98 134
135 Temple Ricke 12 New Albany (OH) 2 21:50.7 113.5 135
136 Brandy White 11 Washington (WA) 1 21:51.9 113.4 136
137 Maddie Lyons 10 Columbus East (IN) 4 21:53.5 113.2 99 137
138 Cheyenne Warren 10 Evansville Reitz Memorial (IN) 6 21:54.8 113.1 100 138
139 Kaitlyn Stanley 10 Vincennes Lincoln (IN) 6 21:57.2 112.9 101 139
140 Maria Garcia 12 Seymour (IN) 2 21:57.5 112.9 102 140
141 Emma Mensendiek 9 Columbus East (IN) 5 22:03.7 112.4 103 141
142 Taylor Stucke 11 Evansville North (IN) 7 22:04.4 112.3 104 142
143 Holly Bittner 10 Gibson Southern (IN) 4 22:05.2 112.2 105 143
144 Abigail Simone 9 Jasper (IN) 6 22:06.1 112.2 106 144
145 Elisa Gallion 11 Brownstown Central (IN) 1 22:07.0 112.1 145
146 Lauren Betz 12 Northeast Dubois (IN) 7 22:09.6 111.9 107 146
147 Eva Traylor 11 Evansville Mater Dei (IN) 2 22:11.1 111.7 108 147
148 Sarah Benefiel 9 Seymour (IN) 3 22:11.8 111.7 109 148
149 Paris Brock 11 Silver Creek (CA) 6 22:12.4 111.6 110 149
150 Amanda Herrmann 11 Evansville Mater Dei (IN) 3 22:19.1 111.1 111 150
151 Lily Duncan 10 Evansville Mater Dei (IN) 4 22:19.7 111.0 112 151
152 Kendra Blankenberger 12 Evansville Mater Dei (IN) 5 22:19.9 111.0 113 152
153 Lexy Terrell 9 North Harrison (IN) 6 22:21.0 110.9 114 153
154 Allyson Schneider 11 Gibson Southern (IN) 5 22:22.4 110.8 115 154
155 Kaitlin Wendel 11 Columbus East (IN) 6 22:27.8 110.3 116 155
156 Jalynn Stanford 10 Brown County (IN) 5 22:30.0 110.2 117 156
157 Gabby Hasenour 10 Forest Park (VA) 5 22:31.0 110.1 118 157
158 Molly Austin 9 Brown County (IN) 6 22:31.4 110.1 119 158
159 Emily Bromm 12 Evansville Reitz Memorial (IN) 7 22:32.0 110.0 120 159
160 Wylie Poling 9 Brown County (IN) 7 22:36.1 109.7 121 160
161 Bailey Hayes 10 Rockville (MD) 1 22:36.1 109.7 161
162 Emory Lewis 10 Silver Creek (CA) 7 22:39.8 109.4 122 162
163 Alexis Gross 9 Seymour (IN) 4 22:42.5 109.2 123 163
164 Lakin White 9 Salem (MI) 4 22:44.5 109.0 124 164
165 Sabrina Becher 10 Forest Park (VA) 6 22:46.9 108.8 125 165
166 Amanda Blankenberger 11 Evansville Mater Dei (IN) 6 22:48.2 108.7 126 166
167 Lexi Lay 10 Gibson Southern (IN) 6 22:49.3 108.6 127 167
168 Grace Mehringer 9 Jasper (IN) 7 22:53.8 108.3 128 168
169 Delaney Sunbury 11 Seymour (IN) 5 22:56.0 108.1 129 169
170 Alexis Beed 12 Seymour (IN) 6 23:18.3 106.4 130 170
171 Riley Jarrell 10 Evansville Mater Dei (IN) 7 23:22.4 106.1 131 171
172 Megan Miller 10 Columbus East (IN) 7 23:25.4 105.8 132 172
173 Savanna Haas 12 Forest Park (VA) 7 23:29.9 105.5 133 173
174 Jozie Barton 11 Gibson Southern (IN) 7 23:35.2 105.1 134 174
175 Natalie Hollensead 11 North Harrison (IN) 7 23:42.0 104.6 135 175
176 MEGAN LAW 12 Salem (MI) 5 23:56.5 103.5 136 176
177 Rachel Carter 12 Salem (MI) 6 25:31.6 97.1 137 177
178 Rachel Hopkins 11 Salem (MI) 7 25:35.9 96.8 138 178
179 Hannah Ritz 12 Vincennes Lincoln (IN) 7 29:48.5 83.2 139 179